User: anonymous   Login
Location: Chagrin Falls Park
(41.4139°N, 81.3865°W)
Time: 09:04:26
(UTC+00:00)
Language:

STARLINK-2727 - Orbit

View from above orbital plane
View from above orbital plane
View from above satellite
View from above satellite

Ground track
Ground track

The orbit data is extracted from the following two-line orbital elements,

1 48652C 21044Q   22276.10187500  .00013557  00000-0  90792-3 0  2766
2 48652  53.0532 349.2103 0001526  52.9041 182.6487 15.06401869    19
Epoch (UTC): 03 October 2022 02:26:42
Eccentricity: 0.0001526
inclination: 53.0532°
perigee height: 546 km
apogee height: 548 km
right ascension of ascending node: 349.2103°
argument of perigee: 52.9041°
revolutions per day: 15.06401869
mean anomaly at epoch: 182.6487°
orbit number at epoch: 1

The dashed part of the orbit path shows where the satellite is in the earth's shadow,  

DLR